Volver al catálogo

COSMOS 1134

ActivoMilitarLEO
NORAD 11542·PAYLOAD·🇷🇺 Russia

Lanzado Sep 25, 1979 desde Plesetsk Cosmodrome

Loading…

Próximos Pases (próximas 24 horas)

TLE

ActualizadoSource: Space-Track

Época: Sep 14, 2026, 09:59 UTC

1 11542U 79084E   26257.41607795 -.00000026  00000-0 -69318-4 0  9993
2 11542  74.0214 247.2392 0019518 330.1101 101.9387 12.49080832141759

Sigue COSMOS 1134 en tiempo real con AllMySat

Download on the App Store